Starlink 30308

operational
NORAD ID: 57742 Int'l Des: 2023-131 Owner: SPXS Country: US Constellation: starlink
LEOCIRCULAR

About Starlink 30308

Description loading...

Live Position

Loading 3D Globe...

Upcoming Passes

Altitude History

Altitude vs Time

uPlot chart will show altitude changes over time

Two-Line Element Set

1 57742U 23131L 25304.00046887 .00000968 00000-0 86683-4 0 9990
2 57742 43.0033 156.6496 0001234 264.6506 95.4196 15.02536512120429
Epoch: Oct 31, 2025 • Age: 21 hours

Current Status

Altitude 559.6 km
Velocity 7.59 km/s
Sub-Earth Point 26.11°N, 170.92°W
Launch Date Sep 1, 2023
Age 2.1 years
Type internet

Technical Details

Classification Payload
Mass 730.00 kg
Dry Mass 700.00 kg
Total Mass 730.00 kg
Length 0.30 m
Diameter 4.10 m
Span 29.00 m
Shape Box + pan
Manufacturer SPXS
Bus Type Starlink V2M
Phase Status In Orbit
Owner/State SPXS/US

Large Constellations

Loading constellations...